| time (UTC) | temp F | wind direction | speed knots | gust knots | rain 1hr in | rain 24hr in | rain mn in | humidity % | barometer mb |
| 20260505124818 | 70 | 155 | 7.0 | 7.8 | 0.00 | 0.00 | 0.00 | 92 | 1009.3 |
| 20260505124315 | 70 | 203 | 10.4 | 13.0 | 0.00 | 0.00 | 0.00 | 92 | 1009.2 |
| 20260505123810 | 70 | 218 | 7.0 | 8.7 | 0.00 | 0.00 | 0.00 | 92 | 1009.1 |
| 20260505123308 | 70 | 131 | 7.8 | 12.2 | 0.00 | 0.00 | 0.00 | 92 | 1009.0 |
| 20260505122803 | 70 | 202 | 9.6 | 12.2 | 0.00 | 0.00 | 0.00 | 92 | 1009.1 |
| 20260505122301 | 70 | 154 | 5.2 | 6.1 | 0.00 | 0.00 | 0.00 | 92 | 1008.9 |
| 20260505121757 | 70 | 176 | 9.6 | 11.3 | 0.00 | 0.00 | 0.00 | 92 | 1009.0 |
| 20260505121254 | 70 | 168 | 5.2 | 7.0 | 0.00 | 0.00 | 0.00 | 92 | 1008.9 |
| 20260505120750 | 70 | 190 | 12.2 | 13.9 | 0.00 | 0.00 | 0.00 | 92 | 1008.8 |
| 20260505120247 | 70 | 179 | 7.8 | 8.7 | 0.00 | 0.00 | 0.00 | 92 | 1008.4 |
| 20260505115745 | 70 | 183 | 11.3 | 13.9 | 0.00 | 0.00 | 0.00 | 91 | 1008.3 |
| 20260505115243 | 70 | 199 | 6.1 | 7.8 | 0.00 | 0.00 | 0.00 | 92 | 1008.4 |
| 20260505114740 | 70 | 188 | 7.0 | 9.6 | 0.00 | 0.00 | 0.00 | 92 | 1008.4 |
| 20260505114236 | 70 | 203 | 8.7 | 13.0 | 0.00 | 0.00 | 0.00 | 91 | 1008.7 |
| 20260505113733 | 70 | 189 | 7.0 | 7.8 | 0.00 | 0.00 | 0.00 | 91 | 1008.4 |
| 20260505113230 | 70 | 154 | 5.2 | 7.0 | 0.00 | 0.00 | 0.00 | 91 | 1008.9 |
| 20260505112726 | 70 | 217 | 8.7 | 13.0 | 0.00 | 0.00 | 0.00 | 91 | 1008.7 |
| 20260505112224 | 70 | 208 | 6.1 | 7.8 | 0.00 | 0.00 | 0.00 | 91 | 1008.4 |
| 20260505111723 | 70 | 199 | 7.8 | 9.6 | 0.00 | 0.00 | 0.00 | 91 | 1008.4 |
| 20260505111220 | 70 | 206 | 7.0 | 9.6 | 0.00 | 0.00 | 0.00 | 91 | 1008.5 |
| 20260505110715 | 70 | 165 | 7.8 | 11.3 | 0.00 | 0.00 | 0.00 | 91 | 1008.4 |
| 20260505110213 | 70 | 193 | 7.8 | 9.6 | 0.00 | 0.00 | 0.00 | 91 | 1008.7 |
| 20260505102149 | 70 | 166 | 5.2 | 6.1 | 0.00 | 0.00 | 0.00 | 90 | 1008.7 |
| 20260505101647 | 70 | 172 | 9.6 | 13.0 | 0.00 | 0.00 | 0.00 | 90 | 1009.2 |
| 20260505101143 | 70 | 182 | 5.2 | 9.6 | 0.00 | 0.00 | 0.00 | 90 | 1008.9 |
| 20260505100639 | 70 | 117 | 6.1 | 7.8 | 0.00 | 0.00 | 0.00 | 90 | 1009.2 |
| 20260505100137 | 70 | 158 | 6.1 | 7.0 | 0.00 | 0.00 | 0.00 | 89 | 1009.2 |
| 20260505095632 | 70 | 220 | 9.6 | 11.3 | 0.00 | 0.00 | 0.00 | 89 | 1009.1 |
| 20260505095130 | 70 | 185 | 4.3 | 5.2 | 0.00 | 0.00 | 0.00 | 89 | 1008.9 |
| 20260505094626 | 70 | 225 | 7.0 | 8.7 | 0.00 | 0.00 | 0.00 | 89 | 1008.9 |
| 20260505094122 | 70 | 213 | 5.2 | 7.0 | 0.00 | 0.00 | 0.00 | 89 | 1008.9 |
| 20260505093619 | 70 | 191 | 6.1 | 9.6 | 0.00 | 0.00 | 0.00 | 89 | 1009.1 |
| 20260505093116 | 70 | 201 | 4.3 | 7.8 | 0.00 | 0.00 | 0.00 | 89 | 1009.2 |
| 20260505092613 | 70 | 183 | 5.2 | 6.1 | 0.00 | 0.00 | 0.00 | 89 | 1009.2 |
| 20260505092112 | 70 | 160 | 5.2 | 5.2 | 0.00 | 0.00 | 0.00 | 89 | 1008.9 |
| 20260505091608 | 70 | 178 | 7.8 | 9.6 | 0.00 | 0.00 | 0.00 | 89 | 1009.2 |
| 20260505091106 | 70 | 184 | 3.5 | 5.2 | 0.00 | 0.00 | 0.00 | 89 | 1009.3 |
| 20260505090604 | 70 | 182 | 7.0 | 7.8 | 0.00 | 0.00 | 0.00 | 89 | 1009.4 |
| 20260505085559 | 70 | 180 | 7.0 | 7.8 | 0.00 | 0.00 | 0.00 | 90 | 1009.3 |
| 20260505085057 | 70 | 166 | 7.8 | 12.2 | 0.00 | 0.00 | 0.00 | 90 | 1009.1 |
| 20260505084555 | 70 | 187 | 7.0 | 8.7 | 0.00 | 0.00 | 0.00 | 90 | 1009.2 |
| 20260505084053 | 70 | 155 | 7.8 | 11.3 | 0.00 | 0.00 | 0.00 | 90 | 1009.4 |
| 20260505083550 | 70 | 201 | 5.2 | 6.1 | 0.00 | 0.00 | 0.00 | 90 | 1009.1 |
| 20260505083046 | 70 | 188 | 4.3 | 6.1 | 0.00 | 0.00 | 0.00 | 90 | 1009.3 |
| 20260505082542 | 70 | 192 | 11.3 | 13.0 | 0.00 | 0.00 | 0.00 | 90 | 1009.5 |
| 20260505082039 | 70 | 193 | 9.6 | 13.9 | 0.00 | 0.00 | 0.00 | 90 | 1009.5 |
| 20260505081536 | 70 | 163 | 11.3 | 13.9 | 0.00 | 0.00 | 0.00 | 90 | 1009.5 |
| 20260505081033 | 70 | 184 | 6.1 | 7.0 | 0.00 | 0.00 | 0.00 | 89 | 1009.5 |
| 20260505080529 | 71 | 191 | 6.1 | 7.0 | 0.00 | 0.00 | 0.00 | 89 | 1009.5 |
| 20260505080026 | 71 | 170 | 5.2 | 7.8 | 0.00 | 0.00 | 0.00 | 89 | 1009.6 |
| 20260505075522 | 71 | 199 | 7.8 | 9.6 | 0.00 | 0.00 | 0.00 | 89 | 1009.5 |
| 20260505075019 | 71 | 197 | 5.2 | 6.1 | 0.00 | 0.00 | 0.00 | 89 | 1009.7 |
| 20260505074516 | 71 | 178 | 4.3 | 6.1 | 0.00 | 0.00 | 0.00 | 89 | 1010.0 |
| 20260505074013 | 71 | 213 | 3.5 | 6.1 | 0.00 | 0.00 | 0.00 | 89 | 1009.9 |
| 20260505073510 | 71 | 174 | 6.1 | 8.7 | 0.00 | 0.00 | 0.00 | 89 | 1009.9 |
| 20260505073009 | 71 | 159 | 4.3 | 6.1 | 0.00 | 0.00 | 0.00 | 88 | 1009.9 |
| 20260505072504 | 71 | 172 | 7.8 | 7.8 | 0.00 | 0.00 | 0.00 | 88 | 1010.1 |
| 20260505072000 | 71 | 172 | 7.8 | 11.3 | 0.00 | 0.00 | 0.00 | 88 | 1010.2 |
| 20260505071456 | 71 | 207 | 6.1 | 7.0 | 0.00 | 0.00 | 0.00 | 88 | 1010.3 |
| 20260505070954 | 71 | 148 | 3.5 | 6.1 | 0.00 | 0.00 | 0.00 | 88 | 1010.3 |
| 20260505070451 | 71 | 163 | 4.3 | 6.1 | 0.00 | 0.00 | 0.00 | 88 | 1010.4 |
| 20260505065946 | 71 | 161 | 11.3 | 13.0 | 0.00 | 0.00 | 0.00 | 88 | 1010.3 |
| 20260505065443 | 71 | 161 | 6.1 | 7.8 | 0.00 | 0.00 | 0.00 | 88 | 1010.3 |
| 20260505064940 | 71 | 176 | 9.6 | 11.3 | 0.00 | 0.00 | 0.00 | 88 | 1010.3 |
| 20260505064437 | 71 | 202 | 3.5 | 5.2 | 0.00 | 0.00 | 0.00 | 88 | 1010.5 |
| 20260505063935 | 71 | 179 | 10.4 | 12.2 | 0.00 | 0.00 | 0.00 | 88 | 1010.5 |
| 20260505063431 | 71 | 222 | 11.3 | 14.8 | 0.00 | 0.00 | 0.00 | 88 | 1010.6 |
| 20260505062928 | 71 | 167 | 9.6 | 13.9 | 0.00 | 0.00 | 0.00 | 88 | 1010.7 |
| 20260505062425 | 71 | 158 | 5.2 | 7.0 | 0.00 | 0.00 | 0.00 | 88 | 1010.9 |
| 20260505061921 | 71 | 195 | 8.7 | 12.2 | 0.00 | 0.00 | 0.00 | 88 | 1010.9 |
| 20260505061420 | 71 | 201 | 7.0 | 9.6 | 0.00 | 0.00 | 0.00 | 88 | 1010.7 |
| 20260505060917 | 71 | 176 | 8.7 | 12.2 | 0.00 | 0.00 | 0.00 | 87 | 1010.9 |
| 20260505060414 | 71 | 151 | 4.3 | 5.2 | 0.00 | 0.00 | 0.00 | 87 | 1010.7 |
| 20260505055910 | 71 | 150 | 10.4 | 13.9 | 0.00 | 0.00 | 0.00 | 87 | 1010.8 |
| 20260505055407 | 71 | 184 | 8.7 | 11.3 | 0.00 | 0.00 | 0.00 | 87 | 1010.8 |
| 20260505054903 | 71 | 174 | 8.7 | 9.6 | 0.00 | 0.00 | 0.00 | 87 | 1010.9 |
| 20260505054401 | 71 | 164 | 10.4 | 13.0 | 0.00 | 0.00 | 0.00 | 87 | 1010.9 |
| 20260505053859 | 71 | 157 | 6.1 | 7.0 | 0.00 | 0.00 | 0.00 | 87 | 1011.0 |
| 20260505053356 | 71 | 134 | 6.1 | 7.8 | 0.00 | 0.00 | 0.00 | 87 | 1010.7 |
| 20260505052852 | 71 | 191 | 9.6 | 13.9 | 0.00 | 0.00 | 0.00 | 87 | 1010.7 |
| 20260505052349 | 71 | 160 | 3.5 | 6.1 | 0.00 | 0.00 | 0.00 | 87 | 1010.9 |
| 20260505051846 | 71 | 135 | 5.2 | 7.0 | 0.00 | 0.00 | 0.00 | 87 | 1010.9 |
| 20260505051343 | 71 | 169 | 7.8 | 11.3 | 0.00 | 0.00 | 0.00 | 87 | 1010.9 |
| 20260505050842 | 71 | 185 | 8.7 | 11.3 | 0.00 | 0.00 | 0.00 | 87 | 1010.7 |
| 20260505050340 | 71 | 158 | 7.0 | 11.3 | 0.00 | 0.00 | 0.00 | 86 | 1010.7 |
| 20260505041307 | 73 | 168 | 5.2 | 7.0 | 0.00 | 0.00 | 0.00 | 83 | 1010.5 |
| 20260505040804 | 73 | 193 | 12.2 | 13.0 | 0.00 | 0.00 | 0.00 | 83 | 1010.8 |
| 20260505040302 | 73 | 126 | 6.1 | 8.7 | 0.00 | 0.00 | 0.00 | 83 | 1010.5 |
| 20260505035758 | 73 | 201 | 12.2 | 13.9 | 0.00 | 0.00 | 0.00 | 83 | 1010.9 |
| 20260505035254 | 73 | 112 | 10.4 | 14.8 | 0.00 | 0.00 | 0.00 | 82 | 1010.8 |
| 20260505034751 | 73 | 157 | 8.7 | 13.9 | 0.00 | 0.00 | 0.00 | 83 | 1010.8 |
| 20260505034248 | 74 | 183 | 5.2 | 7.8 | 0.00 | 0.00 | 0.00 | 82 | 1010.9 |
| 20260505033744 | 74 | 143 | 8.7 | 12.2 | 0.00 | 0.00 | 0.00 | 82 | 1010.7 |
| 20260505033242 | 74 | 133 | 4.3 | 6.1 | 0.00 | 0.00 | 0.00 | 82 | 1010.8 |
| 20260505032740 | 74 | 173 | 8.7 | 12.2 | 0.00 | 0.00 | 0.00 | 81 | 1010.4 |
| 20260505032236 | 74 | 154 | 5.2 | 7.0 | 0.00 | 0.00 | 0.00 | 81 | 1010.7 |
| 20260505031733 | 74 | 144 | 7.8 | 9.6 | 0.00 | 0.00 | 0.00 | 81 | 1010.6 |
| 20260505031229 | 74 | 132 | 9.6 | 13.0 | 0.00 | 0.00 | 0.00 | 80 | 1010.7 |
| 20260505030727 | 74 | 147 | 1.7 | 3.5 | 0.00 | 0.00 | 0.00 | 80 | 1010.7 |
| 20260505030223 | 74 | 186 | 2.6 | 2.6 | 0.00 | 0.00 | 0.00 | 80 | 1010.9 |
| 20260505025718 | 75 | 150 | 6.1 | 7.8 | 0.00 | 0.00 | 0.00 | 79 | 1010.7 |
| 20260505025217 | 75 | 180 | 5.2 | 7.0 | 0.00 | 0.00 | 0.00 | 79 | 1010.5 |
| 20260505024715 | 75 | 154 | 4.3 | 7.0 | 0.00 | 0.00 | 0.00 | 79 | 1010.7 |
| 20260505024212 | 75 | 153 | 8.7 | 9.6 | 0.00 | 0.00 | 0.00 | 78 | 1010.5 |
| 20260505023709 | 75 | 165 | 7.8 | 9.6 | 0.00 | 0.00 | 0.00 | 78 | 1010.9 |
| 20260505023206 | 75 | 170 | 7.8 | 8.7 | 0.00 | 0.00 | 0.00 | 77 | 1010.5 |
| 20260505022704 | 75 | 136 | 3.5 | 5.2 | 0.00 | 0.00 | 0.00 | 77 | 1010.5 |
| 20260505022200 | 76 | 185 | 5.2 | 7.0 | 0.00 | 0.00 | 0.00 | 76 | 1010.5 |
| 20260505021657 | 76 | 171 | 10.4 | 13.0 | 0.00 | 0.00 | 0.00 | 76 | 1010.5 |
| 20260505021154 | 76 | 170 | 7.0 | 9.6 | 0.00 | 0.00 | 0.00 | 75 | 1010.5 |
| 20260505020650 | 76 | 178 | 7.8 | 11.3 | 0.00 | 0.00 | 0.00 | 75 | 1010.5 |
| 20260505020145 | 76 | 132 | 5.2 | 7.8 | 0.00 | 0.00 | 0.00 | 74 | 1010.5 |
| 20260505015643 | 76 | 112 | 5.2 | 7.8 | 0.00 | 0.00 | 0.00 | 73 | 1010.4 |
| 20260505015139 | 76 | 173 | 7.8 | 9.6 | 0.00 | 0.00 | 0.00 | 73 | 1010.4 |
| 20260505014636 | 76 | 197 | 3.5 | 5.2 | 0.00 | 0.00 | 0.00 | 72 | 1010.5 |
| 20260505014133 | 77 | 175 | 2.6 | 3.5 | 0.00 | 0.00 | 0.00 | 72 | 1010.4 |
| 20260505013631 | 77 | 174 | 4.3 | 5.2 | 0.00 | 0.00 | 0.00 | 71 | 1010.5 |
| 20260505013128 | 77 | 144 | 3.5 | 5.2 | 0.00 | 0.00 | 0.00 | 70 | 1010.4 |
| 20260505012626 | 77 | 177 | 6.1 | 7.0 | 0.00 | 0.00 | 0.00 | 70 | 1010.4 |
| 20260505012123 | 78 | 131 | 2.6 | 3.5 | 0.00 | 0.00 | 0.00 | 69 | 1010.3 |
| 20260505011618 | 78 | 99 | 7.8 | 9.6 | 0.00 | 0.00 | 0.00 | 68 | 1010.3 |
| 20260505011116 | 78 | 155 | 7.8 | 11.3 | 0.00 | 0.00 | 0.00 | 68 | 1010.2 |
| 20260505010611 | 78 | 218 | 5.2 | 7.0 | 0.00 | 0.00 | 0.00 | 67 | 1010.1 |
| 20260505010108 | 78 | 180 | 5.2 | 7.0 | 0.00 | 0.00 | 0.00 | 67 | 1010.3 |
| 20260505005604 | 78 | 200 | 7.8 | 8.7 | 0.00 | 0.00 | 0.00 | 67 | 1010.3 |
| 20260505005101 | 78 | 151 | 5.2 | 7.8 | 0.00 | 0.00 | 0.00 | 67 | 1010.2 |
| 20260505004558 | 78 | 139 | 3.5 | 5.2 | 0.00 | 0.00 | 0.00 | 66 | 1010.1 |
| 20260505004055 | 79 | 167 | 7.0 | 12.2 | 0.00 | 0.00 | 0.00 | 65 | 1010.0 |
| 20260505003552 | 79 | 160 | 7.8 | 13.0 | 0.00 | 0.00 | 0.00 | 64 | 1010.1 |
| 20260505003050 | 79 | 170 | 7.8 | 11.3 | 0.00 | 0.00 | 0.00 | 64 | 1010.2 |
| 20260505002549 | 79 | 133 | 6.1 | 7.8 | 0.00 | 0.00 | 0.00 | 64 | 1010.0 |
| 20260505002044 | 79 | 158 | 7.8 | 13.9 | 0.00 | 0.00 | 0.00 | 64 | 1009.9 |
| 20260505001540 | 79 | 203 | 7.0 | 7.8 | 0.00 | 0.00 | 0.00 | 63 | 1010.0 |
| 20260505001038 | 79 | 166 | 9.6 | 13.9 | 0.00 | 0.00 | 0.00 | 64 | 1009.9 |
| 20260505000535 | 80 | 199 | 12.2 | 13.9 | 0.00 | 0.00 | 0.00 | 62 | 1009.8 |
| 20260505000033 | 80 | 143 | 9.6 | 13.0 | 0.00 | 0.00 | 0.00 | 62 | 1010.2 |
| 20260504235529 | 80 | 160 | 11.3 | 13.9 | 0.00 | 0.00 | 0.00 | 62 | 1010.3 |
| 20260504235026 | 80 | 193 | 8.7 | 9.6 | 0.00 | 0.00 | 0.00 | 62 | 1010.3 |
| 20260504234523 | 80 | 148 | 6.1 | 7.8 | 0.00 | 0.00 | 0.00 | 62 | 1010.3 |
| 20260504234020 | 80 | 89 | 7.0 | 8.7 | 0.00 | 0.00 | 0.00 | 63 | 1010.3 |
| 20260504233515 | 80 | 152 | 4.3 | 7.0 | 0.00 | 0.00 | 0.00 | 62 | 1010.3 |
| 20260504233012 | 80 | 170 | 7.0 | 8.7 | 0.00 | 0.00 | 0.00 | 62 | 1010.4 |
| 20260504232509 | 80 | 164 | 7.8 | 9.6 | 0.00 | 0.00 | 0.00 | 61 | 1010.4 |
| 20260504232007 | 81 | 190 | 10.4 | 12.2 | 0.00 | 0.00 | 0.00 | 62 | 1010.4 |
| 20260504231503 | 80 | 199 | 7.0 | 8.7 | 0.00 | 0.00 | 0.00 | 61 | 1010.4 |
| 20260504230959 | 81 | 171 | 10.4 | 12.2 | 0.00 | 0.00 | 0.00 | 63 | 1010.6 |
| 20260504230455 | 81 | 178 | 7.0 | 9.6 | 0.00 | 0.00 | 0.00 | 63 | 1010.6 |
| 20260504225955 | 80 | 171 | 12.2 | 15.6 | 0.00 | 0.00 | 0.00 | 62 | 1010.6 |
| 20260504225451 | 81 | 130 | 4.3 | 7.8 | 0.00 | 0.00 | 0.00 | 63 | 1010.8 |
| 20260504224948 | 81 | 131 | 9.6 | 13.0 | 0.00 | 0.00 | 0.00 | 63 | 1010.9 |
| 20260504224445 | 81 | 174 | 9.6 | 12.2 | 0.00 | 0.00 | 0.00 | 62 | 1011.0 |
| 20260504223942 | 81 | 224 | 5.2 | 7.8 | 0.00 | 0.00 | 0.00 | 62 | 1010.9 |
| 20260504223438 | 81 | 182 | 8.7 | 11.3 | 0.00 | 0.00 | 0.00 | 61 | 1010.9 |
| 20260504222933 | 81 | 217 | 7.8 | 9.6 | 0.00 | 0.00 | 0.00 | 61 | 1010.6 |
| 20260504222432 | 81 | 187 | 10.4 | 14.8 | 0.00 | 0.00 | 0.00 | 62 | 1011.1 |
| 20260504221929 | 81 | 165 | 13.9 | 18.2 | 0.00 | 0.00 | 0.00 | 61 | 1011.0 |
| 20260504221426 | 81 | 127 | 7.0 | 12.2 | 0.00 | 0.00 | 0.00 | 62 | 1011.1 |
| 20260504220923 | 81 | 194 | 7.0 | 8.7 | 0.00 | 0.00 | 0.00 | 62 | 1011.1 |
| 20260504220419 | 81 | 128 | 3.5 | 5.2 | 0.00 | 0.00 | 0.00 | 63 | 1010.9 |
| 20260504215916 | 81 | 196 | 7.0 | 7.8 | 0.00 | 0.00 | 0.00 | 63 | 1011.0 |
| 20260504215413 | 82 | 187 | 9.6 | 13.0 | 0.00 | 0.00 | 0.00 | 61 | 1011.1 |
| 20260504214909 | 81 | 196 | 7.8 | 11.3 | 0.00 | 0.00 | 0.00 | 62 | 1011.1 |
| 20260504214406 | 80 | 164 | 9.6 | 13.0 | 0.00 | 0.00 | 0.00 | 62 | 1011.1 |
| 20260504213903 | 80 | 149 | 7.0 | 11.3 | 0.00 | 0.00 | 0.00 | 63 | 1011.1 |
| 20260504213359 | 80 | 215 | 3.5 | 5.2 | 0.00 | 0.00 | 0.00 | 63 | 1011.3 |
| 20260504212856 | 80 | 228 | 7.0 | 7.8 | 0.00 | 0.00 | 0.00 | 63 | 1011.4 |
| 20260504212352 | 80 | 145 | 8.7 | 12.2 | 0.00 | 0.00 | 0.00 | 62 | 1011.6 |
| 20260504211850 | 80 | 191 | 8.7 | 11.3 | 0.00 | 0.00 | 0.00 | 62 | 1011.6 |
| 20260504211346 | 80 | 180 | 5.2 | 7.0 | 0.00 | 0.00 | 0.00 | 62 | 1011.8 |
| 20260504210844 | 80 | 197 | 8.7 | 11.3 | 0.00 | 0.00 | 0.00 | 62 | 1011.9 |
| 20260504210340 | 80 | 178 | 3.5 | 7.8 | 0.00 | 0.00 | 0.00 | 63 | 1011.9 |
| 20260504205837 | 81 | 132 | 4.3 | 7.0 | 0.00 | 0.00 | 0.00 | 62 | 1012.3 |
| 20260504205335 | 80 | 187 | 9.6 | 12.2 | 0.00 | 0.00 | 0.00 | 62 | 1012.2 |
| 20260504204833 | 80 | 169 | 10.4 | 13.0 | 0.00 | 0.00 | 0.00 | 61 | 1012.3 |
| 20260504204331 | 80 | 173 | 8.7 | 13.0 | 0.00 | 0.00 | 0.00 | 62 | 1012.3 |
| 20260504203830 | 80 | 195 | 8.7 | 8.7 | 0.00 | 0.00 | 0.00 | 61 | 1012.3 |
| 20260504203327 | 80 | 205 | 4.3 | 6.1 | 0.00 | 0.00 | 0.00 | 61 | 1012.2 |
| 20260504202822 | 79 | 190 | 7.8 | 8.7 | 0.00 | 0.00 | 0.00 | 61 | 1012.6 |
| 20260504202320 | 80 | 131 | 5.2 | 6.1 | 0.00 | 0.00 | 0.00 | 62 | 1012.7 |
| 20260504201817 | 80 | 174 | 6.1 | 6.1 | 0.00 | 0.00 | 0.00 | 62 | 1012.7 |
| 20260504201314 | 80 | 181 | 7.8 | 8.7 | 0.00 | 0.00 | 0.00 | 60 | 1012.8 |
| 20260504200812 | 80 | 192 | 9.6 | 13.0 | 0.00 | 0.00 | 0.00 | 62 | 1012.9 |
| 20260504200308 | 79 | 153 | 9.6 | 11.3 | 0.00 | 0.00 | 0.00 | 62 | 1013.0 |
| 20260504195804 | 80 | 179 | 4.3 | 6.1 | 0.00 | 0.00 | 0.00 | 63 | 1013.1 |
| 20260504195300 | 80 | 198 | 9.6 | 11.3 | 0.00 | 0.00 | 0.00 | 61 | 1013.1 |
| 20260504194757 | 80 | 183 | 7.0 | 7.8 | 0.00 | 0.00 | 0.00 | 61 | 1013.4 |
| 20260504194253 | 79 | 176 | 11.3 | 15.6 | 0.00 | 0.00 | 0.00 | 62 | 1013.4 |
| 20260504193749 | 79 | 148 | 9.6 | 13.0 | 0.00 | 0.00 | 0.00 | 62 | 1013.7 |
| 20260504193247 | 79 | 186 | 3.5 | 5.2 | 0.00 | 0.00 | 0.00 | 63 | 1013.6 |
| 20260504192745 | 78 | 203 | 7.8 | 8.7 | 0.00 | 0.00 | 0.00 | 63 | 1013.6 |
| 20260504192243 | 78 | 184 | 8.7 | 11.3 | 0.00 | 0.00 | 0.00 | 64 | 1013.9 |
| 20260504191742 | 79 | 187 | 4.3 | 6.1 | 0.00 | 0.00 | 0.00 | 62 | 1013.8 |
| 20260504191238 | 78 | 211 | 5.2 | 6.1 | 0.00 | 0.00 | 0.00 | 64 | 1014.0 |
| 20260504190733 | 78 | 199 | 8.7 | 12.2 | 0.00 | 0.00 | 0.00 | 63 | 1014.1 |
| 20260504190230 | 78 | 176 | 10.4 | 12.2 | 0.00 | 0.00 | 0.00 | 63 | 1014.1 |
| 20260504185726 | 78 | 175 | 11.3 | 16.5 | 0.00 | 0.00 | 0.00 | 64 | 1014.0 |
| 20260504185224 | 78 | 151 | 12.2 | 15.6 | 0.00 | 0.00 | 0.00 | 64 | 1014.2 |
| 20260504184720 | 78 | 174 | 12.2 | 13.9 | 0.00 | 0.00 | 0.00 | 64 | 1014.2 |
| 20260504184216 | 77 | 195 | 7.8 | 11.3 | 0.00 | 0.00 | 0.00 | 65 | 1014.2 |
| 20260504183711 | 77 | 172 | 7.8 | 12.2 | 0.00 | 0.00 | 0.00 | 65 | 1014.4 |
| 20260504183209 | 77 | 183 | 7.0 | 7.8 | 0.00 | 0.00 | 0.00 | 67 | 1014.4 |
| 20260504182707 | 77 | 184 | 7.8 | 8.7 | 0.00 | 0.00 | 0.00 | 66 | 1014.6 |
| 20260504182204 | 76 | 181 | 7.0 | 7.0 | 0.00 | 0.00 | 0.00 | 67 | 1014.7 |
| 20260504181701 | 76 | 109 | 5.2 | 6.1 | 0.00 | 0.00 | 0.00 | 67 | 1014.8 |
| 20260504181159 | 76 | 169 | 5.2 | 9.6 | 0.00 | 0.00 | 0.00 | 68 | 1014.7 |
| 20260504180658 | 76 | 135 | 4.3 | 7.0 | 0.00 | 0.00 | 0.00 | 68 | 1014.9 |
| 20260504180156 | 76 | 135 | 5.2 | 7.0 | 0.00 | 0.00 | 0.00 | 67 | 1015.0 |
| 20260504175653 | 75 | 167 | 6.1 | 9.6 | 0.00 | 0.00 | 0.00 | 68 | 1014.9 |
| 20260504175149 | 75 | 179 | 8.7 | 9.6 | 0.00 | 0.00 | 0.00 | 69 | 1015.2 |
| 20260504174648 | 74 | 137 | 10.4 | 13.9 | 0.00 | 0.00 | 0.00 | 70 | 1015.2 |
| 20260504174144 | 74 | 114 | 7.8 | 9.6 | 0.00 | 0.00 | 0.00 | 70 | 1015.2 |
| 20260504173641 | 74 | 195 | 11.3 | 14.8 | 0.00 | 0.00 | 0.00 | 71 | 1015.5 |
| 20260504173138 | 73 | 210 | 6.1 | 7.8 | 0.00 | 0.00 | 0.00 | 71 | 1015.6 |
| 20260504172635 | 73 | 192 | 7.0 | 9.6 | 0.00 | 0.00 | 0.00 | 72 | 1015.8 |
| 20260504172131 | 73 | 121 | 10.4 | 13.0 | 0.00 | 0.00 | 0.00 | 72 | 1015.7 |
| 20260504171628 | 73 | 200 | 8.7 | 12.2 | 0.00 | 0.00 | 0.00 | 73 | 1015.9 |
| 20260504171125 | 73 | 145 | 10.4 | 11.3 | 0.00 | 0.00 | 0.00 | 72 | 1016.0 |
| 20260504170621 | 73 | 210 | 6.1 | 9.6 | 0.00 | 0.00 | 0.00 | 71 | 1015.8 |
| 20260504170119 | 73 | 189 | 7.8 | 9.6 | 0.00 | 0.00 | 0.00 | 70 | 1015.9 |
| 20260504151004 | 69 | 157 | 12.2 | 13.9 | 0.00 | 0.00 | 0.00 | 75 | 1016.6 |
| 20260504150502 | 70 | 163 | 7.8 | 9.6 | 0.00 | 0.00 | 0.00 | 75 | 1016.5 |
| 20260504140928 | 66 | 208 | 6.1 | 7.0 | 0.00 | 0.00 | 0.00 | 77 | 1016.7 |
| 20260504140424 | 66 | 217 | 5.2 | 6.1 | 0.00 | 0.00 | 0.00 | 77 | 1016.7 |